Marshfield, WI

11:51 AM CST on November 22, 2019 (GMT -0600)
Marshfield Municipal

Weather History for KMFI - September, 2019

Change the Weather History Date:

Wednesday, September 4, 2019

  Actual Average Record
Temperature  
Mean Temperature 56 °F -  
Max Temperature 63 °F 76 °F 92 °F (1925)
Min Temperature 48 °F 51 °F 31 °F (1974)
Degree Days  
Heating Degree Days 8    
Growing Degree Days 6 (Base 50)    
Moisture  
Dew Point 49 °F    
Average Humidity 80    
Maximum Humidity 93    
Minimum Humidity 60    
Precipitation  
Precipitation 0.00 in - - ()
Sea Level Pressure  
Sea Level Pressure 30.12 in    
Wind  
Wind Speed 9 mph (NNW)    
Max Wind Speed 14 mph    
Max Gust Speed 24 mph    
Visibility 9 miles    
Events Rain    
Averages and records for this station are not official NWS values.
T = Trace of Precipitation, MM = Missing Value Source: NWS Daily Summary

Daily Weather History Graph

Daily Weather History Graph

Search for Another Location

Airport or City:

Astronomy

Sep. 04, 2019 Rise Set
Actual Time 6:26 AM CDT 7:32 PM CDT
Civil Twilight 5:56 AM CDT 8:02 PM CDT
Nautical Twilight 5:20 AM CDT 8:37 PM CDT
Astronomical Twilight 4:42 AM CDT 9:15 PM CDT
Moon 12:42 PM CDT (9/4) 10:51 PM CDT (9/4)
Length of Visible Light 14h 05m
Length of Day
13h 05m
Waxing Crescent, 35% of the Moon is Illuminated
Sep 4
Waxing Crescent
Sep 5
First Quarter
Sep 13
Full
Sep 21
Last Quarter
Sep 28
New

Hourly Weather History & Observations

Time (CDT) Temp. Dew Point Humidity Pressure Visibility Wind Dir Wind Speed Gust Speed Precip Events Conditions
12:05 AM 57.9 °F 53.1 °F 84% 29.95 in 10.0 mi NW 13.8 mph - N/A   Overcast
1:54 AM 57.0 °F 52.0 °F 83% 29.98 in 10.0 mi NW 13.8 mph - N/A   Overcast
2:21 AM 57.0 °F 53.1 °F 87% 30.00 in 4.0 mi North 11.5 mph 21.9 mph N/A   Overcast
2:29 AM 55.0 °F 53.1 °F 93% 30.00 in 2.0 mi North 12.7 mph 21.9 mph 0.00 in Rain Light Rain
2:34 AM 55.0 °F 52.0 °F 89% 30.00 in 3.0 mi North 13.8 mph 24.2 mph 0.00 in Rain Light Rain
2:54 AM 54.0 °F 51.1 °F 90% 30.00 in 10.0 mi NNW 13.8 mph 23.0 mph 0.00 in   Overcast
3:22 AM 53.1 °F 50.0 °F 89% 30.02 in 10.0 mi North 9.2 mph - N/A   Partly Cloudy
3:54 AM 52.0 °F 48.9 °F 89% 30.02 in 10.0 mi North 5.8 mph - N/A   Clear
4:54 AM 50.0 °F 46.9 °F 89% 30.05 in 10.0 mi NNW 5.8 mph - N/A   Clear
5:54 AM 50.0 °F 48.0 °F 93% 30.08 in 10.0 mi NNW 5.8 mph - N/A   Mostly Cloudy
6:25 AM 50.0 °F 48.0 °F 93% 30.09 in 10.0 mi NW 8.1 mph - N/A   Partly Cloudy
6:54 AM 51.1 °F 48.0 °F 89% 30.11 in 10.0 mi NW 6.9 mph - N/A   Partly Cloudy
7:07 AM 52.0 °F 48.9 °F 89% 30.11 in 10.0 mi NW 8.1 mph - N/A   Mostly Cloudy
7:16 AM 52.0 °F 48.9 °F 89% 30.11 in 10.0 mi NNW 4.6 mph - N/A   Overcast
7:31 AM 53.1 °F 48.9 °F 86% 30.12 in 10.0 mi NNW 6.9 mph - N/A   Overcast
7:54 AM 53.1 °F 48.9 °F 86% 30.14 in 10.0 mi NNW 9.2 mph - N/A   Overcast
8:54 AM 54.0 °F 48.0 °F 80% 30.15 in 10.0 mi North 8.1 mph - N/A   Overcast
9:54 AM 55.0 °F 46.9 °F 74% 30.17 in 10.0 mi NNW 9.2 mph - N/A   Overcast
10:54 AM 55.9 °F 48.0 °F 75% 30.17 in 10.0 mi North 4.6 mph - N/A   Overcast
11:54 AM 55.9 °F 48.0 °F 75% 30.19 in 10.0 mi NNW 6.9 mph - N/A   Overcast
12:54 PM 57.0 °F 48.0 °F 72% 30.19 in 10.0 mi North 4.6 mph - N/A   Overcast
1:54 PM 57.0 °F 46.9 °F 69% 30.19 in 10.0 mi Variable 4.6 mph - N/A   Overcast
2:54 PM 57.9 °F 48.0 °F 70% 30.19 in 10.0 mi Calm Calm - N/A   Overcast
3:54 PM 61.0 °F 48.9 °F 64% 30.17 in 10.0 mi Variable 4.6 mph - N/A   Mostly Cloudy
4:44 PM 61.0 °F 48.9 °F 64% 30.16 in 10.0 mi North 3.5 mph - N/A   Mostly Cloudy
4:54 PM 61.0 °F 48.9 °F 64% 30.17 in 10.0 mi NNW 5.8 mph - N/A   Mostly Cloudy
5:16 PM 61.0 °F 48.9 °F 64% 30.16 in 10.0 mi West 4.6 mph - N/A   Overcast
5:28 PM 61.0 °F 48.9 °F 64% 30.16 in 10.0 mi NNW 4.6 mph - N/A   Overcast
5:38 PM 63.0 °F 50.0 °F 63% 30.15 in 10.0 mi NNW 4.6 mph - N/A   Mostly Cloudy
5:54 PM 63.0 °F 48.9 °F 60% 30.17 in 10.0 mi North 3.5 mph - N/A   Partly Cloudy
6:54 PM 61.0 °F 48.9 °F 64% 30.17 in 10.0 mi Calm Calm - N/A   Clear
7:54 PM 55.9 °F 51.1 °F 84% 30.17 in 9.0 mi South 3.5 mph - N/A   Clear
8:54 PM 54.0 °F 50.0 °F 86% 30.17 in 10.0 mi Calm Calm - N/A   Clear
9:54 PM 51.1 °F 48.0 °F 89% 30.17 in 10.0 mi Calm Calm - N/A   Clear
10:54 PM 50.0 °F 46.9 °F 89% 30.17 in 10.0 mi SSW 3.5 mph - N/A   Clear
11:54 PM 48.9 °F 46.9 °F 93% 30.17 in 10.0 mi South 3.5 mph - N/A   Clear